Starlink 32647

operational
NORAD ID: 62200 Int'l Des: 2024-229 Owner: SPXS Country: US Constellation: starlink
LEOCIRCULAR

Über Starlink 32647

Beschreibung wird geladen...

Live-Position

3D-Globus wird geladen...

Nächste Überflüge

Höhenverlauf

Altitude vs Time

uPlot chart will show altitude changes over time

Zweizeiliger Elementsatz

1 62200U 24229J 25350.14790045 .00028317 00000-0 10336-2 0 9990
2 62200 43.0018 22.6065 0001515 233.2935 126.7778 15.27613265 57781
Epoch: 16. Dez. 2025 • Age: 20 hours

Aktueller Status

Höhe 486.0 km
Geschwindigkeit 7.62 km/s
Subsatellitenpunkt -15.54°S, 83.02°W
Startdatum 4. Dez. 2024
Alter 1 years
Typ internet

Technische Details

Klassifizierung Payload
Masse 730.00 kg
Trockenmasse 700.00 kg
Gesamtmasse 730.00 kg
Länge 0.30 m
Durchmesser 4.10 m
Spannweite 29.00 m
Form Box + pan
Hersteller SPXS
Bus-Typ Starlink V2M
Phasenstatus In Orbit
Besitzer/Staat SPXS/US

Große Konstellationen

Loading constellations...